Back to catalog

LANDSAT 7

AliveScienceSSO
NORAD 25682·PAYLOAD·🇺🇸 United States

Launched Apr 15, 1999 from Vandenberg Space Force Base

Loading…

Next Passes (next 24 hours)

TLE

FreshSource: Space-Track

Epoch: Sep 14, 2026, 13:52 UTC

1 25682U 99020A   26257.57845811  .00000286  00000-0  63068-4 0  9997
2 25682  97.8637 257.1432 0001544 100.7931 331.9321 14.63980648458923

Track LANDSAT 7 in real time with AllMySat

Download on the App Store